[[{"header":{"parameterUnit":"m.s-1","parameterCategory":1,"la1":30.2991,"la2":30.254,"lo1":-89.0895,"lo2":-89.0444,"dy":0.0017,"dx":0.0017,"nx":28,"ny":28,"refTime":"2023-08-02T21:00:00:Z","depth":0,"parameterNumber":2,"parameterNumberName":"U-component_of_WINDS"},"data":[0,0,0,0,0,0,0,0,0,0,0,0,0,0,0,0,0,0,0,0,0,0,0,0,0,0,0,0,0,0,0,0,0,0,0,0,0,0,0,0,0,0,0,0,0,0,0,0,0,0,0,0,0,0,0,0,0,0,0.5119,0.5121,0,0.5261,0.5263,0.5264,0.5325,0.5325,0.5325,0.5324,0.547,0.5474,0.5478,0,0,0,0,0,0,0,0,0,0,0,0,0,0.4901,0.4904,0.5119,0.5121,0.5123,0.5261,0.5263,0.5265,0.5325,0.5325,0.5325,0.5324,0.5469,0.5474,0.5479,0,0,0,0,0,0,0,0,0,0,0,0,0,0.5014,0.4905,0.5119,0.5169,0.5175,0.526,0.5263,0.5265,0.5325,0.5325,0.5325,0.5324,0.5467,0.5473,0.5479,0.5525,0,0,0.5498,0.5501,0,0,0,0,0,0,0,0,0.5008,0.5022,0.516,0.5166,0.5173,0.5275,0.5239,0.5352,0.5325,0.5268,0.5324,0.5324,0.5406,0.5417,0.5444,0.5532,0.5538,0.5499,0.5503,0.5505,0.5507,0,0,0,0,0,0,0,0.5,0.5016,0.5175,0.5162,0.517,0.5185,0.5201,0.5261,0.5337,0.5273,0.5278,0.5294,0.5409,0.5438,0.5448,0.554,0.5499,0.5504,0.5508,0.551,0.5671,0.5671,0,0,0,0,0,0,0.4983,0.5009,0.5171,0.518,0.5088,0.5189,0.5207,0.5243,0.5337,0.5351,0.5294,0.5296,0.5428,0.5441,0.5454,0.5513,0.5505,0.5511,0.5514,0.567,0.5671,0.5672,0,0,0,0,0,0,0.4979,0.4997,0.5165,0.5096,0.5118,0.5193,0.5233,0.5246,0.5275,0.5353,0.5367,0.531,0.5428,0.5445,0.5506,0.5518,0.5514,0.5519,0.567,0.5671,0.5671,0.5631,0,0,0,0,0,0,0.4972,0.4995,0.5013,0.5096,0.5122,0.5215,0.5234,0.5249,0.5285,0.5289,0.5371,0.5384,0.5429,0.5497,0.5512,0.5527,0.5524,0.5669,0.567,0.5671,0.5631,0.563,0.5629,0,0,0,0,0,0.4964,0.4996,0.5014,0.5033,0.5146,0.5216,0.5231,0.5282,0.5286,0.5305,0.5354,0.5382,0.5514,0.5503,0.5521,0.5537,0.5668,0.567,0.5671,0.5632,0.563,0.5629,0,0,0,0,0,0,0.4914,0.5008,0.5029,0.5089,0.5144,0.5226,0.5251,0.5278,0.5334,0.5335,0.5396,0.5414,0.547,0.551,0.5495,0.5586,0.5594,0.5599,0.5558,0.5557,0.5556,0.5545,0.5529,0,0,0,0,0,0.4909,0.4958,0.5038,0.5083,0.511,0.5176,0.5208,0.5242,0.5302,0.5326,0.538,0.5437,0.5492,0.5527,0.5581,0.5637,0.5656,0.5657,0.5656,0.5655,0.5658,0.5691,0.5692,0.5676,0.5676,0.5676,0,0,0.4901,0.4959,0.4986,0.5075,0.5122,0.5171,0.5195,0.5246,0.5283,0.5334,0.5395,0.5437,0.5504,0.5563,0.5592,0.5598,0.5667,0.5656,0.5655,0.5659,0.5692,0.5694,0.5695,0.5677,0.5677,0.5676,0,0,0.4912,0.496,0.5003,0.5049,0.512,0.5163,0.5173,0.5251,0.5281,0.5343,0.5382,0.5427,0.552,0.5566,0.5602,0.5629,0.5656,0.5645,0.5639,0.567,0.5671,0.5673,0.5682,0.5685,0.5648,0.5648,0.5648,0,0.4893,0.4969,0.5022,0.5071,0.5108,0.5156,0.5199,0.5242,0.5326,0.5351,0.5357,0.5474,0.5523,0.5593,0.5599,0.5627,0.564,0.5636,0.5667,0.5669,0.5671,0.5681,0.5684,0.5646,0.5647,0.5647,0.5647,0,0.4942,0.4994,0.502,0.51,0.514,0.5186,0.5246,0.5281,0.5311,0.5354,0.5417,0.5477,0.5544,0.5563,0.5594,0.5638,0.5639,0.5655,0.5664,0.567,0.568,0.5684,0.5644,0.5645,0.5645,0.5645,0,0,0.4925,0.5033,0.5042,0.5079,0.5159,0.5201,0.5248,0.5314,0.5342,0.5399,0.5441,0.5518,0.5532,0.5573,0.5609,0.5636,0.5653,0.5648,0.5651,0.5647,0.5705,0.5693,0.5696,0.5671,0.5672,0.5673,0.5699,0,0.4947,0.5035,0.5083,0.5151,0.5199,0.5244,0.5286,0.534,0.5381,0.5428,0.5473,0.5527,0.5542,0.5567,0.5595,0.5645,0.5665,0.5643,0.5711,0.5712,0.5692,0.5702,0.5689,0.5711,0.5704,0.5704,0.5705,0,0.4984,0.5039,0.5111,0.5186,0.5208,0.5244,0.5308,0.5352,0.5414,0.5442,0.5487,0.5522,0.5574,0.5579,0.5652,0.5636,0.5666,0.5694,0.5697,0.5705,0.5709,0.571,0.572,0.5723,0.5712,0.5711,0.5711,0,0.4964,0.5056,0.5111,0.5141,0.523,0.5254,0.5292,0.5354,0.539,0.5446,0.547,0.5531,0.5564,0.561,0.5662,0.566,0.5729,0.5738,0.5754,0.5752,0.5767,0.5765,0.5781,0.5786,0.5786,0.5785,0.5785,0,0.4983,0.5025,0.5104,0.5138,0.5186,0.5242,0.5288,0.533,0.5384,0.5427,0.547,0.5509,0.5574,0.5621,0.5661,0.5715,0.573,0.5754,0.5764,0.575,0.5747,0.5771,0.5771,0.5786,0.5786,0.5786,0.5786,0,0.4969,0.5024,0.5087,0.5165,0.5186,0.5218,0.5285,0.532,0.5362,0.5416,0.5431,0.5499,0.5556,0.5612,0.5689,0.5716,0.577,0.5784,0.5749,0.5755,0.5767,0.5765,0.5799,0.5806,0.5805,0.5805,0.5805,0,0.4978,0.5011,0.5093,0.5125,0.5162,0.5212,0.5249,0.5304,0.5341,0.5414,0.5439,0.55,0.5552,0.5642,0.5698,0.5757,0.5772,0.578,0.5782,0.5766,0.5773,0.577,0.5774,0.5779,0.5778,0.5778,0.5778,0,0.4987,0.5012,0.5064,0.5124,0.5167,0.5218,0.527,0.5293,0.5358,0.5397,0.5457,0.5497,0.5575,0.5635,0.5701,0.574,0.577,0.5777,0.5784,0.577,0.5749,0.576,0.5746,0.5776,0.5776,0.5776,0.5777,0.5777,0.4985,0.5017,0.5079,0.5135,0.518,0.5227,0.5263,0.531,0.5361,0.5429,0.5459,0.5518,0.5579,0.567,0.5709,0.5757,0.5764,0.5774,0.5776,0.5778,0.5775,0.5741,0.5769,0.5769,0.5769,0.577,0.577,0,0.4997,0.5039,0.509,0.5161,0.5204,0.5228,0.5287,0.5322,0.5374,0.5428,0.5478,0.5545,0.5603,0.5663,0.5725,0.5751,0.5767,0.5766,0.5765,0.5773,0.5765,0.5753,0.5752,0.5752,0.5752,0.5752,0.5752,0.5752,0.5008,0.5063,0.5095,0.5173,0.5215,0.5273,0.5305,0.5349,0.5392,0.5466,0.5514,0.5553,0.5609,0.5675,0.5729,0.5745,0.5766,0.5761,0.5781,0.5773,0.5774,0.5775,0.5764,0.5765,0.5765,0.5785,0.5786,0.5786]},{"header":{"parameterUnit":"m.s-1","parameterCategory":1,"la1":30.2991,"la2":30.254,"lo1":-89.0895,"lo2":-89.0444,"dy":0.0017,"dx":0.0017,"nx":28,"ny":28,"refTime":"2023-08-02T21:00:00:Z","depth":0,"parameterNumber":3,"parameterNumberName":"V-component_of_WINDS"},"data":[0,0,0,0,0,0,0,0,0,0,0,0,0,0,0,0,0,0,0,0,0,0,0,0,0,0,0,0,0,0,0,0,0,0,0,0,0,0,0,0,0,0,0,0,0,0,0,0,0,0,0,0,0,0,0,0,0,0,2.4873,2.4872,0,2.4779,2.4778,2.4777,2.4697,2.4696,2.4695,2.4694,2.4593,2.4591,2.459,0,0,0,0,0,0,0,0,0,0,0,0,0,2.4978,2.4976,2.4873,2.4872,2.4871,2.478,2.4778,2.4777,2.4697,2.4696,2.4695,2.4694,2.4594,2.4592,2.4589,0,0,0,0,0,0,0,0,0,0,0,0,0,2.4913,2.4976,2.4873,2.482,2.4815,2.478,2.4778,2.4777,2.4697,2.4696,2.4695,2.4694,2.4595,2.4592,2.4589,2.4598,0,0,2.4581,2.4579,0,0,0,0,0,0,0,0,2.4917,2.4909,2.4829,2.4824,2.4817,2.4749,2.4778,2.4717,2.4698,2.4742,2.4694,2.4693,2.4646,2.4639,2.4624,2.4593,2.4589,2.458,2.4579,2.4577,2.4577,0,0,0,0,0,0,0,2.4921,2.4913,2.4836,2.4828,2.4821,2.4799,2.4789,2.4766,2.4702,2.4738,2.4732,2.4722,2.4642,2.4627,2.4621,2.4587,2.458,2.4578,2.4576,2.4575,2.4557,2.4558,0,0,0,0,0,0,2.4935,2.4917,2.4839,2.4833,2.4865,2.4798,2.4786,2.4772,2.4702,2.469,2.4723,2.4719,2.4632,2.4624,2.4617,2.4621,2.4577,2.4575,2.4573,2.4556,2.4558,2.4559,0,0,0,0,0,0,2.4937,2.4928,2.4843,2.4873,2.4861,2.4798,2.4782,2.4771,2.4755,2.4691,2.4679,2.472,2.4631,2.4621,2.4603,2.4617,2.4573,2.4571,2.4555,2.4557,2.4558,2.4631,0,0,0,0,0,0,2.4941,2.493,2.4934,2.4874,2.486,2.4833,2.4783,2.477,2.4751,2.4744,2.4684,2.4673,2.4629,2.4608,2.46,2.4612,2.4569,2.4553,2.4555,2.4558,2.4627,2.4635,2.4642,0,0,0,0,0,2.4945,2.4958,2.4935,2.4926,2.4864,2.4834,2.4825,2.4775,2.4753,2.4755,2.4714,2.4675,2.4617,2.4607,2.4598,2.4609,2.4552,2.4555,2.4557,2.4624,2.4634,2.4642,0,0,0,0,0,0,2.5019,2.4949,2.4923,2.4917,2.4882,2.482,2.4822,2.4788,2.4757,2.4752,2.469,2.4677,2.4665,2.4635,2.4625,2.4612,2.4579,2.458,2.4633,2.4641,2.4649,2.4655,2.4566,0,0,0,0,0,2.5035,2.5018,2.4957,2.4958,2.4942,2.4885,2.487,2.4835,2.4796,2.478,2.4737,2.4699,2.4672,2.4655,2.4627,2.4623,2.4607,2.4626,2.4633,2.464,2.4641,2.4634,2.4641,2.4568,2.4568,2.4568,0,0,2.5068,2.5027,2.502,2.4972,2.4941,2.4923,2.4873,2.4857,2.4842,2.4777,2.4758,2.4725,2.4678,2.4667,2.466,2.4641,2.4658,2.4643,2.4649,2.4646,2.4638,2.4645,2.4651,2.457,2.4569,2.4569,0,0,2.5117,2.5086,2.5082,2.5052,2.5006,2.4968,2.4968,2.4911,2.4887,2.4867,2.4818,2.4799,2.4754,2.4722,2.47,2.4737,2.4699,2.4729,2.4767,2.4762,2.4768,2.4772,2.4784,2.4789,2.4731,2.4731,2.4731,0,2.5163,2.5135,2.5084,2.5071,2.505,2.4992,2.4987,2.496,2.4906,2.4892,2.4873,2.4814,2.4779,2.4758,2.4768,2.4752,2.4748,2.4735,2.4771,2.4776,2.4779,2.4789,2.4794,2.4735,2.4734,2.4734,2.4734,0,2.5193,2.5174,2.5177,2.5128,2.5108,2.5098,2.5044,2.5029,2.4996,2.496,2.4939,2.4895,2.4855,2.4848,2.4815,2.4823,2.4812,2.4783,2.4748,2.4791,2.4799,2.4803,2.474,2.4739,2.4738,2.4737,0,0,2.5286,2.5209,2.5211,2.5187,2.5132,2.5116,2.5103,2.5066,2.5054,2.5019,2.5005,2.4968,2.494,2.4915,2.4878,2.4874,2.4904,2.4844,2.4842,2.4855,2.4907,2.4928,2.4934,2.4879,2.488,2.488,2.491,0,2.5325,2.53,2.5254,2.5243,2.5224,2.5169,2.5157,2.5121,2.5087,2.5064,2.5025,2.5,2.4966,2.495,2.4944,2.4902,2.4913,2.4899,2.4863,2.4862,2.4875,2.4938,2.4961,2.4992,2.4913,2.4914,2.4914,0,2.5367,2.5337,2.5325,2.527,2.526,2.5251,2.5213,2.5193,2.515,2.5125,2.5097,2.5057,2.5038,2.5007,2.4979,2.4971,2.4953,2.493,2.493,2.4923,2.489,2.4932,2.5001,2.5005,2.4919,2.4919,2.4919,0,2.5434,2.539,2.5377,2.5359,2.5295,2.5289,2.5262,2.5218,2.5198,2.5165,2.5151,2.5115,2.5095,2.5067,2.5016,2.4999,2.4993,2.4959,2.497,2.4971,2.497,2.497,2.5035,2.4962,2.4962,2.4962,2.4962,0,2.5482,2.5476,2.5406,2.5398,2.5389,2.5335,2.5327,2.5295,2.5256,2.5239,2.5188,2.5173,2.5108,2.5084,2.5045,2.5026,2.5018,2.4996,2.4985,2.4999,2.5002,2.4986,2.4981,2.4963,2.4962,2.4962,2.4962,0,2.5555,2.5508,2.5489,2.5431,2.5416,2.5412,2.536,2.5349,2.5312,2.5291,2.5282,2.5223,2.5193,2.5141,2.5094,2.5068,2.5056,2.5039,2.5071,2.5064,2.5078,2.5077,2.5133,2.5137,2.5064,2.5064,2.5065,0,2.5587,2.5582,2.5523,2.5509,2.5484,2.5461,2.5441,2.5388,2.5369,2.5319,2.5313,2.5279,2.5249,2.5202,2.5154,2.5118,2.5098,2.512,2.5092,2.5106,2.5096,2.5096,2.5094,2.5126,2.5127,2.5128,2.5129,0,2.565,2.5627,2.5601,2.5567,2.5545,2.5516,2.5483,2.5474,2.5412,2.5393,2.5362,2.5339,2.5292,2.5258,2.5215,2.5184,2.5145,2.5139,2.5139,2.5153,2.5171,2.5159,2.5087,2.5137,2.5136,2.5136,2.5135,2.5135,2.5702,2.5694,2.5652,2.5624,2.5594,2.5565,2.5551,2.5513,2.5487,2.5446,2.5415,2.5386,2.5341,2.528,2.5251,2.5226,2.5209,2.521,2.5209,2.521,2.5215,2.5177,2.5218,2.5218,2.5218,2.5217,2.5217,0,2.5761,2.5731,2.5706,2.5663,2.5641,2.5609,2.5571,2.5554,2.5529,2.5492,2.5464,2.5427,2.5393,2.5343,2.5305,2.5294,2.5275,2.5286,2.5285,2.5278,2.5234,2.5236,2.5301,2.5301,2.5301,2.5301,2.5301,2.5301,2.5788,2.5773,2.5745,2.5713,2.5682,2.5655,2.5635,2.5607,2.5577,2.5539,2.5512,2.548,2.5436,2.5394,2.5361,2.5347,2.5334,2.535,2.533,2.5289,2.5281,2.5274,2.5276,2.5348,2.5348,2.5376,2.5376,2.5377]}]]